Regional Weather Roundup
Issued by NWS

Home | Current Version | Previous Version | Text Only | Print | Product List | Glossary On
Versions: 1 2 3 4 5 6 7 8 9 10 11 12 13 14 15 16 17 18 19 20 21 22 23 24 25 26 27 28 29 30 31 32 33 34 35 36 37 38 39 40 41 42 43 44 45 46 47 48 49 50
000
ASUS43 KDMX 010607
RWRIA

WEATHER ROUNDUP FOR IOWA
NATIONAL WEATHER SERVICE DES MOINES IA
100 AM CDT TUE SEP 01 2015

NOTE: "FAIR" INDICATES FEW OR NO CLOUDS BELOW 12,000 FEET WITH NO
SIGNIFICANT WEATHER AND/OR OBSTRUCTIONS TO VISIBILITY.

* - THESE STATIONS ARE NOT NWS STATIONS...THUS NOT UNDER NWS
QUALITY CONTROL.  THEY ALSO DO NOT REPORT WEATHER SUCH
AS PRECIPITATION OR FOG.

IAZ001>003-012>014-020>022-031>034-043>046-010700-
   NORTHWEST IOWA

CITY           SKY/WX    TMP DP  RH WIND       PRES   REMARKS
CARROLL *      CLOUDY    63  63 100 CALM      29.95S FOG
CHEROKEE *       N/A     67  67  98 SE3       29.94S
DENISON *      CLOUDY    70  68  94 VRB3      29.92F
LE MARS *      CLEAR     66  66 100 CALM      29.93S
ORANGE CITY *  CLEAR     70  66  88 SE3       29.93F
SHELDON *      PTCLDY    68  66  94 S5        29.92F
SIOUX CITY       N/A     68  64  87 E5        29.91S
6HR MIN TEMP:  68; 6HR MAX TEMP:  81;

SPENCER          N/A     65  62  90 CALM      29.94F FOG
6HR MIN TEMP:  64; 6HR MAX TEMP:  78;

STORM LAKE *   CLEAR     66  66 100 S7        29.95F
$$

IAZ055>058-069>071-079>083-090>094-010700-
   SOUTHWEST IOWA

CITY           SKY/WX    TMP DP  RH WIND       PRES   REMARKS
ATLANTIC *     CLOUDY    68  68 100 CALM      29.95S
AUDUBON *      CLEAR     63  59  88 CALM      29.97S
CLARINDA *     CLEAR     68  68 100 CALM      29.98R
COUNCIL BLFS * CLEAR     72  70  94 S10       29.94F
CRESTON *      CLEAR     72  68  88 S7        30.00R
LAMONI           N/A     73  68  84 S7        29.99R
6HR MIN TEMP:  73; 6HR MAX TEMP:  83;

RED OAK *      CLEAR     70  70 100 CALM      29.96R
SHENANDOAH *   CLEAR     72  70  94 CALM      29.96R
$$

IAZ047>049-059>061-072>074-084-010700-
   CENTRAL IOWA

CITY           SKY/WX    TMP DP  RH WIND       PRES   REMARKS
AMES           FOG       67  65  93 CALM      29.96S VSB 1/4
6HR MIN TEMP:  65; 6HR MAX TEMP:  80;

ANKENY *       CLOUDY    68  68 100 CALM      29.96S FOG
CHARITON *     CLEAR     72  68  88 S7        29.99R
DES MOINES       N/A     74  69  85 S6        29.96R
6HR MIN TEMP:  74; 6HR MAX TEMP:  84;

GRINNELL*        N/A     70  66  88 S6        29.99S
KNOXVILLE *    PTCLDY    73  68  83 S6        29.97S
MARSHALLTOWN     N/A     70  68  93 S6        29.97R
6HR MIN TEMP:  70; 6HR MAX TEMP:  82;

PELLA *          N/A     72  72 100 CALM      29.99S
PERRY *          N/A     68  68  98 CALM      29.96S FOG
$$

IAZ004>006-015-016-023>025-035-036-010700-
   NORTH CENTRAL IOWA

CITY           SKY/WX    TMP DP  RH WIND       PRES   REMARKS
ALGONA *       CLOUDY    66  66 100 S7        29.96R
CLARION *      CLEAR     68  66  94 SE6       29.96S FOG
ESTHERVILLE      N/A     62  62 100 S6        29.94F FOG
6HR MIN TEMP:  62; 6HR MAX TEMP:  77;

FORT DODGE *     N/A     66  64  94 CALM      29.96F
MASON CITY     FOG       66  66 100 S6        29.98R VSB 1/4
6HR MIN TEMP:  66; 6HR MAX TEMP:  79;

FOREST CITY *  FOG       63  63 100 CALM      29.96S VSB 1/4
IOWA FALLS *     N/A     68  66  94 S6        29.99R
$$

IAZ007>011-017>019-026>030-037>042-050>054-066-010700-
   NORTHEAST IOWA

CITY           SKY/WX    TMP DP  RH WIND       PRES   REMARKS
CEDAR RAPIDS     N/A     72  72 100 S6        29.99R FOG
6HR MIN TEMP:  71; 6HR MAX TEMP:  81;

CHARLES CITY * PTCLDY    72  72 100 S3        29.98S FOG
CLINTON *        N/A     73  70  88 S8        30.03S
DECORAH *      CLEAR     72  72 100 S6        29.97S
DUBUQUE          N/A     74  71  91 S13       30.01S
6HR MIN TEMP:  73; 6HR MAX TEMP:  79;

MONTICELLO *   MOCLDY    72  70  94 SE3       29.99S
OELWEIN *      CLEAR     72  72 100 S6        29.99S FOG
WATERLOO         N/A     72  70  93 S5        29.96S FOG
6HR MIN TEMP:  72; 6HR MAX TEMP:  82;

$$

IAZ064-065-067-068-078-010700-
   EAST CENTRAL IOWA

CITY           SKY/WX    TMP DP  RH WIND       PRES   REMARKS
DAVENPORT        N/A     76  71  85 S9        30.01S
6HR MIN TEMP:  73; 6HR MAX TEMP:  82;

IOWA CITY        N/A     72  69  90 CALM      30.00R FOG
6HR MIN TEMP:  72; 6HR MAX TEMP:  83;

MT. PLEASANT *   N/A     73  69  86 CALM      30.00S
MUSCATINE *    CLEAR     73  70  88 S3        30.00R
QUAD CITIES      N/A     76  70  82 S7        30.00S
6HR MIN TEMP:  75; 6HR MAX TEMP:  84;

$$

IAZ062-063-075>077-085>089-095>099-010700-
   SOUTHEAST IOWA

CITY           SKY/WX    TMP DP  RH WIND       PRES   REMARKS
BURLINGTON       N/A     75  72  90 S7        30.00S
6HR MIN TEMP:  75; 6HR MAX TEMP:  84;

FAIRFIELD *    CLEAR     73  68  83 S6        30.00R
FORT MADISON * CLEAR     73  73 100 S7        30.02R
KEOKUK *       PTCLDY    77  72  83 S5        30.00R
OSKALOOSA *      N/A     70  68  94 S5        30.00R
CENTERVILLE *  CLEAR     68  66  94 S3        30.02R
OTTUMWA          N/A     70  69  97 S6        29.98R
6HR MIN TEMP:  70; 6HR MAX TEMP:  82;

WASHINGTON *     N/A    N/A N/A N/A MISG        N/A
$$

ABBREVIATIONS USED IN REMARKS
   TC - TEMPERATURES IN CELSIUS
  WCI - WIND CHILL INDEX
   HX - HEAT INDEX
  VSB - VISIBILITY
$$



USA.gov is the U.S. government's official web portal to all federal, state and local government web resources and services.